When you browse on this site, cookies collect data to enhance your experience and personalize the content and advertising you see.
Visit our Privacy Policy to learn more. By continuing to use the site, you agree to this use of cookies and data.
  • In United Kingdom
  • List of Countries
  • For 7 days
  • Water Temperature
  • Weather Map
  • Weather Widgets
  • user-avatar
    Login

    Hourly Weather Adrar

    Today, 24 August, Saturday

    Time Temperature Precipitation Wind Pressure Humidity
    00:00 +32°C° 0 mm 9 mps 730 mmHg 57%
    01:00 +31°C° 0 mm 8 mps 730 mmHg 60%
    02:00 +29°C° 0 mm 7 mps 730 mmHg 64%
    03:00 +29°C° 0 mm 7 mps 730 mmHg 65%
    04:00 +29°C° 0 mm 7 mps 730 mmHg 66%
    05:00 +29°C° 0 mm 6 mps 730 mmHg 66%
    06:00 +29°C° 0 mm 6 mps 730 mmHg 62%
    07:00 +30°C° 0 mm 6 mps 731 mmHg 58%
    08:00 +32°C° 0 mm 6 mps 731 mmHg 55%
    09:00 +34°C° 0 mm 6 mps 731 mmHg 49%
    10:00 +35°C° 0 mm 7 mps 730 mmHg 43%
    11:00 +38°C° 0 mm 7 mps 731 mmHg 38%
    12:00 +39°C° 0 mm 7 mps 730 mmHg 34%
    13:00 +40°C° 0 mm 8 mps 730 mmHg 31%
    14:00 +41°C° 0 mm 8 mps 729 mmHg 27%
    15:00 +41°C° 0 mm 8 mps 729 mmHg 27%
    16:00 +41°C° 0 mm 7 mps 728 mmHg 27%
    17:00 +41°C° 0 mm 7 mps 728 mmHg 27%
    18:00 +40°C° 0 mm 6 mps 728 mmHg 29%
    19:00 +39°C° 0 mm 6 mps 729 mmHg 31%
    20:00 +38°C° 0 mm 6 mps 729 mmHg 32%
    21:00 +36°C° 0 mm 7 mps 729 mmHg 36%
    22:00 +35°C° 0 mm 8 mps 729 mmHg 40%
    23:00 +33°C° 0 mm 9 mps 729 mmHg 45%

    Tomorrow, 25 August, Sunday

    Time Temperature Precipitation Wind Pressure Humidity
    00:00 +32°C° 0 mm 9 mps 729 mmHg 46%
    01:00 +31°C° 0 mm 9 mps 728 mmHg 47%
    02:00 +31°C° 0 mm 9 mps 728 mmHg 48%
    03:00 +29°C° 0 mm 8 mps 728 mmHg 49%
    04:00 +28°C° 0 mm 8 mps 728 mmHg 50%
    05:00 +28°C° 0 mm 8 mps 729 mmHg 50%
    06:00 +29°C° 0 mm 7 mps 729 mmHg 48%
    07:00 +29°C° 0 mm 6 mps 729 mmHg 45%
    08:00 +30°C° 0 mm 5 mps 730 mmHg 42%
    09:00 +33°C° 0 mm 5 mps 729 mmHg 37%
    10:00 +35°C° 0 mm 5 mps 729 mmHg 33%
    11:00 +37°C° 0 mm 5 mps 729 mmHg 28%
    12:00 +39°C° 0 mm 5 mps 729 mmHg 26%
    13:00 +40°C° 0 mm 5 mps 728 mmHg 25%
    14:00 +41°C° 0 mm 5 mps 728 mmHg 23%
    15:00 +41°C° 0 mm 5 mps 728 mmHg 24%
    16:00 +40°C° 0 mm 6 mps 727 mmHg 24%
    17:00 +40°C° 0 mm 6 mps 727 mmHg 25%
    18:00 +39°C° 0 mm 6 mps 728 mmHg 26%
    19:00 +37°C° 0 mm 5 mps 728 mmHg 27%
    20:00 +36°C° 0 mm 4 mps 728 mmHg 28%
    21:00 +35°C° 0 mm 5 mps 729 mmHg 31%
    22:00 +33°C° 0 mm 6 mps 729 mmHg 35%
    23:00 +32°C° 0 mm 7 mps 729 mmHg 39%

    Day after tomorrow, 26 August, Monday

    Time Temperature Precipitation Wind Pressure Humidity
    00:00 +30°C° 0 mm 6 mps 729 mmHg 43%
    01:00 +29°C° 0 mm 5 mps 729 mmHg 46%
    02:00 +28°C° 0 mm 5 mps 728 mmHg 49%
    03:00 +28°C° 0 mm 5 mps 729 mmHg 52%
    04:00 +27°C° 0 mm 4 mps 729 mmHg 55%
    05:00 +27°C° 0 mm 4 mps 729 mmHg 58%
    06:00 +27°C° 0 mm 4 mps 729 mmHg 57%
    07:00 +28°C° 0 mm 3 mps 730 mmHg 56%
    08:00 +28°C° 0 mm 3 mps 730 mmHg 55%
    09:00 +30°C° 0 mm 3 mps 730 mmHg 50%
    10:00 +31°C° 0 mm 3 mps 730 mmHg 45%
    11:00 +34°C° 0 mm 4 mps 730 mmHg 40%
    12:00 +35°C° 0 mm 3 mps 729 mmHg 37%
    13:00 +36°C° 0 mm 3 mps 729 mmHg 34%
    14:00 +38°C° 0 mm 3 mps 728 mmHg 32%
    15:00 +38°C° 0 mm 3 mps 728 mmHg 31%
    16:00 +38°C° 0 mm 3 mps 728 mmHg 31%
    17:00 +38°C° 0 mm 3 mps 728 mmHg 30%
    18:00 +37°C° 0 mm 3 mps 728 mmHg 31%
    19:00 +36°C° 0 mm 3 mps 729 mmHg 32%
    20:00 +36°C° 0 mm 3 mps 729 mmHg 33%
    21:00 +35°C° 0 mm 3 mps 729 mmHg 34%
    22:00 +35°C° 0 mm 3 mps 730 mmHg 34%
    23:00 +35°C° 0 mm 3 mps 730 mmHg 34%

    27 August, Tuesday

    Time Temperature Precipitation Wind Pressure Humidity
    00:00 +33°C° 0 mm 4 mps 730 mmHg 39%
    01:00 +32°C° 0 mm 5 mps 729 mmHg 44%
    02:00 +30°C° 0 mm 6 mps 729 mmHg 49%
    03:00 +30°C° 0 mm 5 mps 729 mmHg 52%
    04:00 +29°C° 0 mm 4 mps 729 mmHg 55%
    05:00 +28°C° 0 mm 4 mps 729 mmHg 57%
    06:00 +29°C° 0 mm 3 mps 730 mmHg 54%
    07:00 +30°C° 0 mm 3 mps 730 mmHg 51%
    08:00 +31°C° 0 mm 3 mps 730 mmHg 48%
    09:00 +34°C° 0 mm 2 mps 730 mmHg 43%
    10:00 +36°C° 0 mm 2 mps 730 mmHg 37%
    11:00 +38°C° 0 mm 2 mps 730 mmHg 32%
    12:00 +39°C° 0 mm 2 mps 730 mmHg 30%
    13:00 +40°C° 0 mm 2 mps 729 mmHg 27%
    14:00 +41°C° 0 mm 2 mps 728 mmHg 25%
    15:00 +42°C° 0.2 mm 3 mps 728 mmHg 26%
    16:00 +41°C° 0.2 mm 4 mps 728 mmHg 28%
    17:00 +40°C° 0.2 mm 5 mps 727 mmHg 30%
    18:00 +38°C° 0.1 mm 4 mps 728 mmHg 32%
    19:00 +38°C° 0.1 mm 4 mps 728 mmHg 33%
    20:00 +37°C° 0.1 mm 4 mps 728 mmHg 35%
    21:00 +36°C° 0.1 mm 5 mps 729 mmHg 37%
    22:00 +36°C° 0.1 mm 6 mps 729 mmHg 39%
    23:00 +35°C° 0.1 mm 7 mps 729 mmHg 40%

    28 August, Wednesday

    Time Temperature Precipitation Wind Pressure Humidity
    00:00 +34°C° 0 mm 7 mps 729 mmHg 43%
    01:00 +33°C° 0 mm 6 mps 728 mmHg 45%
    02:00 +32°C° 0 mm 5 mps 728 mmHg 47%
    03:00 +30°C° 0 mm 5 mps 728 mmHg 50%
    04:00 +30°C° 0 mm 5 mps 728 mmHg 53%
    05:00 +29°C° 0 mm 5 mps 728 mmHg 56%
    06:00 +29°C° 0 mm 4 mps 729 mmHg 54%
    07:00 +30°C° 0 mm 4 mps 729 mmHg 53%
    08:00 +30°C° 0 mm 3 mps 729 mmHg 51%
    09:00 +33°C° 0 mm 3 mps 729 mmHg 47%
    10:00 +34°C° 0 mm 4 mps 729 mmHg 44%
    11:00 +35°C° 0 mm 4 mps 729 mmHg 40%
    12:00 +36°C° 0 mm 4 mps 729 mmHg 38%
    13:00 +37°C° 0 mm 5 mps 729 mmHg 37%
    14:00 +37°C° 0 mm 5 mps 728 mmHg 35%
    15:00 +37°C° 0 mm 5 mps 728 mmHg 36%
    16:00 +37°C° 0 mm 5 mps 728 mmHg 37%
    17:00 +37°C° 0 mm 4 mps 728 mmHg 37%
    18:00 +36°C° 0 mm 5 mps 728 mmHg 39%
    19:00 +35°C° 0 mm 5 mps 729 mmHg 42%
    20:00 +34°C° 0 mm 5 mps 729 mmHg 44%
    21:00 +34°C° 0 mm 5 mps 730 mmHg 46%
    22:00 +34°C° 0 mm 5 mps 730 mmHg 47%
    23:00 +33°C° 0 mm 4 mps 730 mmHg 49%

    29 August, Thursday

    Time Temperature Precipitation Wind Pressure Humidity
    00:00 +33°C° 0 mm 4 mps 730 mmHg 50%
    01:00 +32°C° 0 mm 4 mps 730 mmHg 52%
    02:00 +32°C° 0 mm 4 mps 730 mmHg 54%
    03:00 +30°C° 0 mm 4 mps 730 mmHg 58%
    04:00 +29°C° 0 mm 4 mps 730 mmHg 62%
    05:00 +29°C° 0 mm 3 mps 730 mmHg 65%
    06:00 +29°C° 0 mm 3 mps 731 mmHg 64%
    07:00 +29°C° 0 mm 3 mps 731 mmHg 62%
    08:00 +30°C° 0 mm 3 mps 731 mmHg 60%
    09:00 +31°C° 0 mm 3 mps 731 mmHg 55%
    10:00 +34°C° 0 mm 2 mps 731 mmHg 49%
    11:00 +36°C° 0 mm 2 mps 731 mmHg 44%
    12:00 +37°C° 0 mm 2 mps 730 mmHg 40%
    13:00 +38°C° 0 mm 2 mps 730 mmHg 35%
    14:00 +40°C° 0 mm 2 mps 729 mmHg 31%
    15:00 +40°C° 0 mm 3 mps 729 mmHg 31%
    16:00 +40°C° 0 mm 3 mps 729 mmHg 30%
    17:00 +41°C° 0 mm 4 mps 728 mmHg 30%
    18:00 +38°C° 0.4 mm 4 mps 729 mmHg 34%
    19:00 +37°C° 0.4 mm 5 mps 730 mmHg 38%
    20:00 +36°C° 0.4 mm 5 mps 730 mmHg 42%
    21:00 +33°C° 3.9 mm 6 mps 730 mmHg 53%
    22:00 +30°C° 3.9 mm 6 mps 731 mmHg 65%
    23:00 +28°C° 3.9 mm 6 mps 731 mmHg 76%
    Show more